Radiation Dose at Monitoring Post of Fukushima Daini Nuclear Power Station
Date,Time,MP-1(microSv/h),MP-2(microSv/h),MP-3(microSv/h),MP-4(microSv/h),MP-5(microSv/h),MP-6(microSv/h),MP-7(microSv/h),Wind Direction,Wind Velocity(m/s),Rain
2016/04/14,00:00,0.462,0.268,0.481,0.427,0.395,0.218,0.191,south-southwest,9.4,Yes
2016/04/14,00:10,0.459,0.268,0.484,0.426,0.397,0.219,0.191,south-southwest,10.0,Yes
2016/04/14,00:20,0.461,0.267,0.480,0.428,0.393,0.217,0.191,south-southwest,8.3,Yes
2016/04/14,00:30,0.459,0.268,0.482,0.427,0.395,0.217,0.190,south-southwest,6.6,Yes
2016/04/14,00:40,0.459,0.267,0.479,0.426,0.393,0.218,0.191,southwest,4.3,Yes
2016/04/14,00:50,0.457,0.268,0.481,0.426,0.394,0.218,0.190,west,2.7,Yes
2016/04/14,01:00,0.455,0.265,0.476,0.421,0.394,0.218,0.190,west-northwest,2.4,Yes
2016/04/14,01:10,0.457,0.267,0.474,0.423,0.392,0.218,0.190,west,3.1,Yes
2016/04/14,01:20,0.452,0.266,0.475,0.417,0.393,0.217,0.189,west,2.2,Yes
2016/04/14,01:30,0.456,0.265,0.471,0.418,0.389,0.217,0.190,-,CALM,Yes
2016/04/14,01:40,0.451,0.265,0.471,0.417,0.392,0.217,0.188,-,CALM,Yes
2016/04/14,01:50,0.455,0.265,0.468,0.417,0.391,0.218,0.189,north-northeast,1.0,Yes
2016/04/14,02:00,0.453,0.265,0.471,0.415,0.391,0.216,0.188,north,1.0,Yes
2016/04/14,02:10,0.451,0.264,0.466,0.415,0.392,0.216,0.188,west,1.4,Yes
2016/04/14,02:20,0.452,0.265,0.467,0.416,0.390,0.216,0.188,east,4.0,Yes
2016/04/14,02:30,0.447,0.264,0.466,0.411,0.392,0.216,0.188,northwest,4.2,Yes
2016/04/14,02:40,0.450,0.264,0.464,0.414,0.390,0.215,0.187,north-northwest,2.8,Yes
2016/04/14,02:50,0.447,0.264,0.465,0.410,0.392,0.215,0.187,north-northeast,4.2,Yes
2016/04/14,03:00,0.449,0.263,0.461,0.411,0.389,0.215,0.187,north,10.2,Yes
2016/04/14,03:10,0.445,0.263,0.463,0.407,0.390,0.214,0.186,northwest,9.8,Yes
2016/04/14,03:20,0.446,0.262,0.458,0.408,0.389,0.215,0.186,north-northeast,7.5,Yes
2016/04/14,03:30,0.443,0.263,0.463,0.408,0.387,0.213,0.185,west-northwest,0.6,Yes
2016/04/14,03:40,0.443,0.261,0.456,0.402,0.388,0.214,0.185,north,1.5,Yes
2016/04/14,03:50,0.443,0.260,0.456,0.403,0.385,0.212,0.184,north,2.3,Yes
2016/04/14,04:00,0.438,0.260,0.455,0.401,0.386,0.212,0.184,east,4.9,Yes
2016/04/14,04:10,0.443,0.260,0.455,0.402,0.388,0.211,0.184,west-southwest,5.4,Yes
2016/04/14,04:20,0.439,0.260,0.456,0.402,0.386,0.210,0.184,north-northwest,4.9,Yes
2016/04/14,04:30,0.438,0.259,0.453,0.402,0.387,0.212,0.183,north-northeast,4.2,Yes
2016/04/14,04:40,0.437,0.259,0.456,0.403,0.386,0.209,0.183,north-northwest,1.4,Yes
2016/04/14,04:50,0.438,0.260,0.453,0.399,0.388,0.210,0.183,west,1.4,Yes
2016/04/14,05:00,0.439,0.259,0.455,0.402,0.385,0.209,0.183,northwest,3.9,Yes
2016/04/14,05:10,0.436,0.260,0.454,0.400,0.387,0.209,0.183,north-northwest,4.4,Yes
2016/04/14,05:20,0.437,0.259,0.452,0.402,0.388,0.210,0.183,north,6.4,Yes
2016/04/14,05:30,0.433,0.259,0.453,0.398,0.385,0.209,0.183,north,5.6,Yes
2016/04/14,05:40,0.435,0.257,0.450,0.398,0.386,0.209,0.181,west,6.5,Yes
2016/04/14,05:50,0.434,0.256,0.452,0.400,0.386,0.208,0.182,north-northeast,8.9,Yes
2016/04/14,06:00,0.432,0.258,0.451,0.397,0.385,0.209,0.182,north,5.3,Yes
2016/04/14,06:10,0.433,0.257,0.451,0.397,0.385,0.207,0.181,northeast,4.3,Yes
2016/04/14,06:20,0.431,0.256,0.449,0.395,0.383,0.206,0.181,north-northeast,5.7,Yes
2016/04/14,06:30,0.433,0.257,0.448,0.396,0.382,0.207,0.180,north,3.9,Yes
2016/04/14,06:40,0.429,0.256,0.450,0.395,0.382,0.207,0.181,northwest,4.3,Yes
2016/04/14,06:50,0.433,0.256,0.448,0.397,0.385,0.207,0.179,north-northeast,5.8,Yes
2016/04/14,07:00,0.431,0.256,0.453,0.399,0.385,0.206,0.182,north-northeast,3.1,Yes
2016/04/14,07:10,0.432,0.257,0.451,0.398,0.386,0.207,0.181,north-northeast,4.2,Yes
2016/04/14,07:20,0.433,0.258,0.455,0.402,0.387,0.208,0.180,north-northeast,4.5,Yes
2016/04/14,07:30,0.432,0.258,0.453,0.400,0.385,0.206,0.181,north-northeast,4.2,Yes
2016/04/14,07:40,0.435,0.258,0.453,0.404,0.386,0.207,0.181,north,5.4,Yes
2016/04/14,07:50,0.435,0.257,0.455,0.403,0.384,0.207,0.180,north,5.8,Yes
2016/04/14,08:00,0.435,0.258,0.451,0.402,0.386,0.207,0.180,north,5.5,Yes
2016/04/14,08:10,0.435,0.257,0.457,0.405,0.385,0.206,0.180,north,5.3,No
2016/04/14,08:20,0.434,0.256,0.454,0.401,0.385,0.206,0.179,north,5.8,No
2016/04/14,08:30,0.437,0.256,0.456,0.404,0.385,0.205,0.179,north,6.0,No
2016/04/14,08:40,0.432,0.254,0.452,0.400,0.382,0.205,0.178,north,6.4,No
2016/04/14,08:50,0.436,0.256,0.455,0.403,0.386,0.205,0.178,north,5.9,Yes
2016/04/14,09:00,0.433,0.256,0.453,0.402,0.383,0.205,0.179,north,7.3,Yes
2016/04/14,09:10,0.435,0.256,0.453,0.403,0.384,0.205,0.177,north,6.9,No
2016/04/14,09:20,0.434,0.254,0.456,0.402,0.386,0.204,0.178,north,7.3,No
2016/04/14,09:30,0.435,0.255,0.453,0.400,0.385,0.205,0.178,north,6.4,No
2016/04/14,09:40,0.437,0.254,0.456,0.403,0.385,0.205,0.178,north,5.9,No
2016/04/14,09:50,0.433,0.254,0.451,0.400,0.385,0.205,0.178,north,6.2,No
2016/04/14,10:00,0.437,0.256,0.456,0.403,0.385,0.205,0.177,north,7.8,No
2016/04/14,10:10,0.433,0.253,0.452,0.401,0.383,0.204,0.177,north,6.2,No
2016/04/14,10:20,0.439,0.254,0.456,0.405,0.387,0.205,0.178,north,5.7,No
2016/04/14,10:30,0.434,0.254,0.454,0.400,0.382,0.204,0.177,north,7.2,No
2016/04/14,10:40,0.437,0.254,0.455,0.404,0.384,0.203,0.177,north,6.7,No
2016/04/14,10:50,0.434,0.254,0.452,0.401,0.384,0.204,0.177,north,6.6,No
2016/04/14,11:00,0.437,0.255,0.456,0.405,0.387,0.204,0.178,north,7.2,No
2016/04/14,11:10,0.434,0.253,0.455,0.399,0.384,0.205,0.177,north,7.8,No
2016/04/14,11:20,0.438,0.254,0.456,0.404,0.387,0.204,0.178,north,6.1,No
2016/04/14,11:30,0.435,0.253,0.453,0.400,0.383,0.205,0.176,north,5.6,No
2016/04/14,11:40,0.437,0.254,0.456,0.402,0.386,0.204,0.178,north,6.8,No
2016/04/14,11:50,0.434,0.254,0.456,0.400,0.384,0.205,0.176,north,6.2,No
2016/04/14,12:00,0.437,0.255,0.459,0.404,0.385,0.203,0.177,north,7.5,No
2016/04/14,12:10,0.436,0.256,0.456,0.400,0.382,0.206,0.177,north,6.5,No
2016/04/14,12:20,0.438,0.255,0.455,0.404,0.387,0.204,0.178,north,7.9,No
2016/04/14,12:30,0.436,0.255,0.456,0.402,0.385,0.206,0.177,north,6.6,No
2016/04/14,12:40,0.439,0.254,0.460,0.406,0.387,0.204,0.177,north,5.5,No
2016/04/14,12:50,0.436,0.256,0.456,0.400,0.385,0.205,0.177,north,6.9,No
2016/04/14,13:00,0.438,0.255,0.460,0.405,0.387,0.206,0.178,north,7.3,No
2016/04/14,13:10,0.435,0.254,0.454,0.402,0.383,0.204,0.177,north,4.7,No
2016/04/14,13:20,0.440,0.254,0.459,0.404,0.387,0.204,0.178,north,5.7,No
2016/04/14,13:30,0.436,0.255,0.456,0.405,0.384,0.206,0.179,north,6.5,No
2016/04/14,13:40,0.439,0.255,0.460,0.404,0.388,0.206,0.178,north,7.5,No
2016/04/14,13:50,0.435,0.254,0.454,0.405,0.384,0.204,0.177,north,6.6,No
2016/04/14,14:00,0.440,0.255,0.455,0.399,0.384,0.207,0.178,north,6.9,No
2016/04/14,14:10,0.435,0.253,0.458,0.404,0.385,0.205,0.179,north,7.3,No
2016/04/14,14:20,0.439,0.254,0.451,0.405,0.382,0.205,0.178,north,7.3,No
2016/04/14,14:30,0.437,0.253,0.459,0.401,0.384,0.206,0.180,north,8.1,No
2016/04/14,14:40,0.440,0.256,0.457,0.407,0.385,0.205,0.177,north-northeast,9.4,No
2016/04/14,14:50,0.439,0.256,0.454,0.401,0.387,0.205,0.179,north-northeast,11.2,No
2016/04/14,15:00,0.441,0.256,0.462,0.405,0.388,0.205,0.179,north-northeast,12.4,No
2016/04/14,15:10,0.436,0.255,0.456,0.406,0.386,0.207,0.180,north-northeast,12.2,No
2016/04/14,15:20,0.442,0.257,0.462,0.406,0.389,0.207,0.179,north,12.3,No
2016/04/14,15:30,0.439,0.254,0.460,0.408,0.384,0.205,0.179,north,11.6,No
2016/04/14,15:40,0.443,0.256,0.460,0.406,0.389,0.206,0.179,north-northeast,12.3,No
2016/04/14,15:50,0.440,0.256,0.459,0.408,0.386,0.206,0.179,north-northeast,10.2,No
2016/04/14,16:00,0.442,0.257,0.461,0.406,0.387,0.207,0.180,north-northeast,11.9,No
2016/04/14,16:10,0.441,0.256,0.458,0.407,0.387,0.207,0.179,north,11.5,No
2016/04/14,16:20,0.441,0.257,0.460,0.406,0.389,0.208,0.179,north,9.7,No
2016/04/14,16:30,0.440,0.256,0.458,0.409,0.388,0.207,0.180,north-northeast,9.3,No
2016/04/14,16:40,0.439,0.257,0.462,0.407,0.388,0.207,0.180,north-northeast,7.7,No
2016/04/14,16:50,0.442,0.255,0.458,0.408,0.389,0.207,0.179,north-northeast,6.6,No
2016/04/14,17:00,0.438,0.257,0.463,0.406,0.386,0.206,0.179,north-northeast,7.5,No
2016/04/14,17:10,0.445,0.257,0.457,0.407,0.390,0.207,0.180,north,7.9,No
2016/04/14,17:20,0.440,0.256,0.463,0.408,0.386,0.207,0.179,north,8.2,No
2016/04/14,17:30,0.444,0.257,0.458,0.407,0.390,0.207,0.178,north,5.9,No
2016/04/14,17:40,0.438,0.256,0.462,0.409,0.388,0.206,0.179,north-northeast,7.5,No
2016/04/14,17:50,0.443,0.257,0.458,0.406,0.389,0.207,0.180,north,7.3,No
2016/04/14,18:00,0.440,0.256,0.461,0.407,0.387,0.207,0.179,north,7.2,No
2016/04/14,18:10,0.443,0.257,0.459,0.406,0.389,0.207,0.180,north-northeast,6.8,No
2016/04/14,18:20,0.441,0.257,0.462,0.408,0.388,0.208,0.180,north,7.7,No
2016/04/14,18:30,0.442,0.257,0.458,0.406,0.387,0.207,0.180,north,6.6,No
2016/04/14,18:40,0.440,0.258,0.461,0.408,0.390,0.207,0.179,north,6.4,No
2016/04/14,18:50,0.443,0.257,0.460,0.407,0.385,0.207,0.179,north,5.8,No
2016/04/14,19:00,0.442,0.256,0.461,0.407,0.390,0.208,0.179,north,6.4,No
2016/04/14,19:10,0.440,0.256,0.461,0.407,0.386,0.208,0.179,north,5.6,No
2016/04/14,19:20,0.441,0.257,0.459,0.409,0.391,0.208,0.181,north,5.4,No
2016/04/14,19:30,0.441,0.256,0.463,0.407,0.385,0.208,0.181,north,5.3,No
2016/04/14,19:40,0.443,0.257,0.458,0.408,0.388,0.208,0.178,north,5.4,No
2016/04/14,19:50,0.441,0.256,0.465,0.409,0.389,0.207,0.181,north,5.2,No
2016/04/14,20:00,0.444,0.256,0.460,0.406,0.388,0.208,0.180,north,4.2,No
2016/04/14,20:10,0.440,0.257,0.462,0.409,0.388,0.207,0.180,north,3.2,No
2016/04/14,20:20,0.443,0.257,0.458,0.408,0.387,0.208,0.180,north,2.0,No
2016/04/14,20:30,0.441,0.258,0.463,0.409,0.388,0.207,0.179,north,2.1,No
2016/04/14,20:40,0.442,0.257,0.461,0.409,0.387,0.208,0.180,north,2.3,No
2016/04/14,20:50,0.443,0.256,0.462,0.407,0.386,0.208,0.181,north,3.1,No
2016/04/14,21:00,0.440,0.257,0.463,0.410,0.388,0.207,0.179,north,3.6,No
2016/04/14,21:10,0.443,0.257,0.460,0.406,0.385,0.208,0.180,north-northwest,4.3,No
2016/04/14,21:20,0.441,0.257,0.463,0.410,0.388,0.208,0.180,north-northwest,5.8,No
2016/04/14,21:30,0.443,0.259,0.462,0.408,0.386,0.207,0.180,north-northwest,6.4,No
2016/04/14,21:40,0.441,0.257,0.463,0.408,0.386,0.208,0.179,north-northwest,4.3,No
2016/04/14,21:50,0.444,0.256,0.461,0.408,0.386,0.207,0.180,north,3.8,No
2016/04/14,22:00,0.443,0.258,0.462,0.407,0.387,0.209,0.180,north,3.3,No
2016/04/14,22:10,0.439,0.257,0.462,0.410,0.388,0.207,0.181,north,3.6,No
2016/04/14,22:20,0.442,0.258,0.460,0.408,0.388,0.208,0.179,north-northwest,4.1,No
2016/04/14,22:30,0.441,0.256,0.463,0.409,0.385,0.207,0.180,north-northwest,4.0,No
2016/04/14,22:40,0.444,0.256,0.461,0.409,0.387,0.208,0.180,northwest,3.8,No
2016/04/14,22:50,0.442,0.256,0.463,0.406,0.387,0.208,0.179,northwest,5.3,No
2016/04/14,23:00,0.442,0.255,0.461,0.407,0.387,0.208,0.180,west-northwest,5.4,No
2016/04/14,23:10,0.443,0.257,0.459,0.407,0.386,0.208,0.179,northwest,5.3,No
2016/04/14,23:20,0.440,0.257,0.464,0.407,0.386,0.206,0.180,northwest,3.4,No
2016/04/14,23:30,0.442,0.257,0.460,0.408,0.387,0.207,0.180,west-northwest,4.7,No
2016/04/14,23:40,0.440,0.257,0.461,0.407,0.385,0.208,0.181,northwest,3.1,No
2016/04/14,23:50,0.442,0.256,0.462,0.408,0.387,0.209,0.180,west-northwest,4.8,No
